Time,TemperatureF,DewpointF,PressureIn,WindDirection,WindDirectionDegrees,WindSpeedMPH,WindSpeedGustMPH,Humidity,HourlyPrecipIn,Conditions,Clouds,dailyrainin,SoftwareType,DateUTC
2013-07-13 00:02:00,56.0,-99.9,30.12,North,-999,-999.0,-999.0,-999,-99.99,,,-99.99,,2013-07-13 04:02:00,
2013-07-13 00:32:00,56.0,-99.9,30.12,North,-999,-999.0,-999.0,-999,-99.99,,,-99.99,,2013-07-13 04:32:00,
2013-07-13 00:44:00,56.0,-99.9,30.12,North,-999,-999.0,-999.0,-999,-99.99,,,-99.99,,2013-07-13 04:44:00,
2013-07-13 01:01:00,55.0,-99.9,30.13,North,-999,-999.0,-999.0,-999,-99.99,,,-99.99,,2013-07-13 05:01:00,
2013-07-13 01:22:00,55.0,-99.9,30.13,North,-999,-999.0,-999.0,-999,-99.99,,,-99.99,,2013-07-13 05:22:00,
2013-07-13 01:42:00,54.0,-99.9,30.13,North,-999,-999.0,-999.0,-999,-99.99,,,-99.99,,2013-07-13 05:42:00,
2013-07-13 01:52:00,54.0,-99.9,30.13,North,-999,-999.0,-999.0,-999,-99.99,,,-99.99,,2013-07-13 05:52:00,
2013-07-13 02:02:00,53.0,-99.9,30.13,North,-999,-999.0,-999.0,-999,-99.99,,,-99.99,,2013-07-13 06:02:00,
2013-07-13 02:22:00,53.0,-99.9,30.13,North,-999,-999.0,-999.0,-999,-99.99,,,-99.99,,2013-07-13 06:22:00,
2013-07-13 02:43:00,51.0,-99.9,30.14,North,-999,-999.0,-999.0,-999,-99.99,,,-99.99,,2013-07-13 06:43:00,
2013-07-13 02:52:00,51.0,-99.9,30.14,North,-999,-999.0,-999.0,-999,-99.99,,,-99.99,,2013-07-13 06:52:00,
2013-07-13 03:02:00,51.0,-99.9,30.14,North,-999,-999.0,-999.0,-999,-99.99,,,-99.99,,2013-07-13 07:02:00,
2013-07-13 03:11:00,51.0,-99.9,30.14,North,-999,-999.0,-999.0,-999,-99.99,,,-99.99,,2013-07-13 07:11:00,
2013-07-13 03:33:00,50.0,-99.9,30.15,North,-999,-999.0,-999.0,-999,-99.99,,,-99.99,,2013-07-13 07:33:00,
2013-07-13 03:44:00,50.0,-99.9,30.15,North,-999,-999.0,-999.0,-999,-99.99,,,-99.99,,2013-07-13 07:44:00,
2013-07-13 03:53:00,50.0,-99.9,30.15,North,-999,-999.0,-999.0,-999,-99.99,,,-99.99,,2013-07-13 07:53:00,
2013-07-13 04:02:00,50.0,-99.9,30.15,North,-999,-999.0,-999.0,-999,-99.99,,,-99.99,,2013-07-13 08:02:00,
2013-07-13 04:33:00,50.0,-99.9,30.15,North,-999,-999.0,-999.0,-999,-99.99,,,-99.99,,2013-07-13 08:33:00,
2013-07-13 04:43:00,50.0,-99.9,30.15,North,-999,-999.0,-999.0,-999,-99.99,,,-99.99,,2013-07-13 08:43:00,
2013-07-13 04:52:00,50.0,-99.9,30.15,North,-999,-999.0,-999.0,-999,-99.99,,,-99.99,,2013-07-13 08:52:00,
2013-07-13 05:02:00,50.0,-99.9,30.15,North,-999,-999.0,-999.0,-999,-99.99,,,-99.99,,2013-07-13 09:02:00,
2013-07-13 05:11:00,50.0,-99.9,30.15,North,-999,-999.0,-999.0,-999,-99.99,,,-99.99,,2013-07-13 09:11:00,
2013-07-13 05:33:00,50.0,-99.9,30.15,North,-999,-999.0,-999.0,-999,-99.99,,,-99.99,,2013-07-13 09:33:00,
2013-07-13 05:43:00,50.0,-99.9,30.15,North,-999,-999.0,-999.0,-999,-99.99,,,-99.99,,2013-07-13 09:43:00,
2013-07-13 05:53:00,50.0,-99.9,30.15,North,-999,-999.0,-999.0,-999,-99.99,,,-99.99,,2013-07-13 09:53:00,
2013-07-13 06:01:00,51.0,-99.9,30.16,North,-999,-999.0,-999.0,-999,-99.99,,,-99.99,,2013-07-13 10:01:00,
2013-07-13 06:32:00,51.0,-99.9,30.16,North,-999,-999.0,-999.0,-999,-99.99,,,-99.99,,2013-07-13 10:32:00,
2013-07-13 06:43:00,51.0,-99.9,30.16,North,-999,-999.0,-999.0,-999,-99.99,,,-99.99,,2013-07-13 10:43:00,
2013-07-13 06:52:00,51.0,-99.9,30.16,North,-999,-999.0,-999.0,-999,-99.99,,,-99.99,,2013-07-13 10:52:00,
2013-07-13 07:02:00,51.0,-99.9,30.17,North,-999,-999.0,-999.0,-999,-99.99,,,-99.99,,2013-07-13 11:02:00,
2013-07-13 07:11:00,51.0,-99.9,30.17,North,-999,-999.0,-999.0,-999,-99.99,,,-99.99,,2013-07-13 11:11:00,
2013-07-13 07:43:00,51.0,-99.9,30.16,North,-999,-999.0,-999.0,-999,-99.99,,,-99.99,,2013-07-13 11:43:00,
2013-07-13 07:52:00,51.0,-99.9,30.16,North,-999,-999.0,-999.0,-999,-99.99,,,-99.99,,2013-07-13 11:52:00,
2013-07-13 08:02:00,51.0,-99.9,30.16,North,-999,-999.0,-999.0,-999,-99.99,,,-99.99,,2013-07-13 12:02:00,
2013-07-13 08:32:00,51.0,-99.9,30.16,North,-999,-999.0,-999.0,-999,-99.99,,,-99.99,,2013-07-13 12:32:00,
2013-07-13 08:43:00,51.0,-99.9,30.16,North,-999,-999.0,-999.0,-999,-99.99,,,-99.99,,2013-07-13 12:43:00,
2013-07-13 09:12:00,51.0,-99.9,30.16,North,-999,-999.0,-999.0,-999,-99.99,,,-99.99,,2013-07-13 13:12:00,
2013-07-13 09:22:00,51.0,-99.9,30.16,North,-999,-999.0,-999.0,-999,-99.99,,,-99.99,,2013-07-13 13:22:00,
2013-07-13 09:43:00,52.0,-99.9,30.17,North,-999,-999.0,-999.0,-999,-99.99,,,-99.99,,2013-07-13 13:43:00,
2013-07-13 09:53:00,52.0,-99.9,30.17,North,-999,-999.0,-999.0,-999,-99.99,,,-99.99,,2013-07-13 13:53:00,
2013-07-13 10:02:00,52.0,-99.9,30.17,North,-999,-999.0,-999.0,-999,-99.99,,,-99.99,,2013-07-13 14:02:00,
2013-07-13 10:53:00,53.0,-99.9,30.19,North,-999,-999.0,-999.0,-999,-99.99,,,-99.99,,2013-07-13 14:53:00,
2013-07-13 11:02:00,53.0,-99.9,30.19,North,-999,-999.0,-999.0,-999,-99.99,,,-99.99,,2013-07-13 15:02:00,
2013-07-13 11:12:00,53.0,-99.9,30.19,North,-999,-999.0,-999.0,-999,-99.99,,,-99.99,,2013-07-13 15:12:00,
2013-07-13 12:02:00,58.0,-99.9,30.20,North,-999,-999.0,-999.0,-999,-99.99,,,-99.99,,2013-07-13 16:02:00,
2013-07-13 12:33:00,58.0,-99.9,30.20,North,-999,-999.0,-999.0,-999,-99.99,,,-99.99,,2013-07-13 16:33:00,
2013-07-13 12:43:00,58.0,-99.9,30.20,North,-999,-999.0,-999.0,-999,-99.99,,,-99.99,,2013-07-13 16:43:00,
2013-07-13 12:53:00,59.0,-99.9,30.21,North,-999,-999.0,-999.0,-999,-99.99,,,-99.99,,2013-07-13 16:53:00,
2013-07-13 13:01:00,62.0,-99.9,30.21,North,-999,-999.0,-999.0,-999,-99.99,,,-99.99,,2013-07-13 17:01:00,
2013-07-13 13:33:00,61.0,-99.9,30.21,North,-999,-999.0,-999.0,-999,-99.99,,,-99.99,,2013-07-13 17:33:00,
2013-07-13 13:43:00,61.0,-99.9,30.21,North,-999,-999.0,-999.0,-999,-99.99,,,-99.99,,2013-07-13 17:43:00,
2013-07-13 14:02:00,61.0,-99.9,30.21,North,-999,-999.0,-999.0,-999,-99.99,,,-99.99,,2013-07-13 18:02:00,
2013-07-13 14:32:00,62.0,-99.9,30.21,North,-999,-999.0,-999.0,-999,-99.99,,,-99.99,,2013-07-13 18:32:00,
2013-07-13 14:44:00,61.0,-99.9,30.21,North,-999,-999.0,-999.0,-999,-99.99,,,-99.99,,2013-07-13 18:44:00,
2013-07-13 15:02:00,58.0,-99.9,30.21,North,-999,-999.0,-999.0,-999,-99.99,,,-99.99,,2013-07-13 19:02:00,
2013-07-13 15:32:00,57.0,-99.9,30.21,North,-999,-999.0,-999.0,-999,-99.99,,,-99.99,,2013-07-13 19:32:00,
2013-07-13 15:44:00,57.0,-99.9,30.21,North,-999,-999.0,-999.0,-999,-99.99,,,-99.99,,2013-07-13 19:44:00,
2013-07-13 15:52:00,56.0,-99.9,30.21,North,-999,-999.0,-999.0,-999,-99.99,,,-99.99,,2013-07-13 19:52:00,
2013-07-13 16:02:00,57.0,-99.9,30.21,North,-999,-999.0,-999.0,-999,-99.99,,,-99.99,,2013-07-13 20:02:00,
2013-07-13 16:11:00,56.0,-99.9,30.21,North,-999,-999.0,-999.0,-999,-99.99,,,-99.99,,2013-07-13 20:11:00,
2013-07-13 16:33:00,57.0,-99.9,30.21,North,-999,-999.0,-999.0,-999,-99.99,,,-99.99,,2013-07-13 20:33:00,
2013-07-13 16:43:00,57.0,-99.9,30.21,North,-999,-999.0,-999.0,-999,-99.99,,,-99.99,,2013-07-13 20:43:00,
2013-07-13 16:53:00,56.0,-99.9,30.21,North,-999,-999.0,-999.0,-999,-99.99,,,-99.99,,2013-07-13 20:53:00,
2013-07-13 17:02:00,57.0,-99.9,30.21,North,-999,-999.0,-999.0,-999,-99.99,,,-99.99,,2013-07-13 21:02:00,
2013-07-13 17:12:00,56.0,-99.9,30.21,North,-999,-999.0,-999.0,-999,-99.99,,,-99.99,,2013-07-13 21:12:00,
2013-07-13 17:32:00,56.0,-99.9,30.21,North,-999,-999.0,-999.0,-999,-99.99,,,-99.99,,2013-07-13 21:32:00,
2013-07-13 17:43:00,56.0,-99.9,30.21,North,-999,-999.0,-999.0,-999,-99.99,,,-99.99,,2013-07-13 21:43:00,
2013-07-13 17:53:00,56.0,-99.9,30.20,North,-999,-999.0,-999.0,-999,-99.99,,,-99.99,,2013-07-13 21:53:00,
2013-07-13 18:01:00,56.0,-99.9,30.20,North,-999,-999.0,-999.0,-999,-99.99,,,-99.99,,2013-07-13 22:01:00,
2013-07-13 18:32:00,56.0,-99.9,30.20,North,-999,-999.0,-999.0,-999,-99.99,,,-99.99,,2013-07-13 22:32:00,
2013-07-13 18:43:00,56.0,-99.9,30.20,North,-999,-999.0,-999.0,-999,-99.99,,,-99.99,,2013-07-13 22:43:00,
2013-07-13 18:53:00,56.0,-99.9,30.19,North,-999,-999.0,-999.0,-999,-99.99,,,-99.99,,2013-07-13 22:53:00,
2013-07-13 19:02:00,56.0,-99.9,30.19,North,-999,-999.0,-999.0,-999,-99.99,,,-99.99,,2013-07-13 23:02:00,
2013-07-13 19:11:00,56.0,-99.9,30.19,North,-999,-999.0,-999.0,-999,-99.99,,,-99.99,,2013-07-13 23:11:00,
2013-07-13 19:33:00,56.0,-99.9,30.19,North,-999,-999.0,-999.0,-999,-99.99,,,-99.99,,2013-07-13 23:33:00,
2013-07-13 19:42:00,56.0,-99.9,30.19,North,-999,-999.0,-999.0,-999,-99.99,,,-99.99,,2013-07-13 23:42:00,
2013-07-13 19:53:00,56.0,-99.9,30.19,North,-999,-999.0,-999.0,-999,-99.99,,,-99.99,,2013-07-13 23:53:00,
2013-07-13 20:01:00,56.0,-99.9,30.19,North,-999,-999.0,-999.0,-999,-99.99,,,-99.99,,2013-07-14 00:01:00,
2013-07-13 20:22:00,56.0,-99.9,30.19,North,-999,-999.0,-999.0,-999,-99.99,,,-99.99,,2013-07-14 00:22:00,
2013-07-13 20:33:00,56.0,-99.9,30.18,North,-999,-999.0,-999.0,-999,-99.99,,,-99.99,,2013-07-14 00:33:00,
2013-07-13 20:42:00,56.0,-99.9,30.19,North,-999,-999.0,-999.0,-999,-99.99,,,-99.99,,2013-07-14 00:42:00,
2013-07-13 21:02:00,56.0,-99.9,30.19,North,-999,-999.0,-999.0,-999,-99.99,,,-99.99,,2013-07-14 01:02:00,
2013-07-13 21:11:00,57.0,-99.9,30.19,North,-999,-999.0,-999.0,-999,-99.99,,,-99.99,,2013-07-14 01:11:00,
2013-07-13 21:43:00,57.0,-99.9,30.19,North,-999,-999.0,-999.0,-999,-99.99,,,-99.99,,2013-07-14 01:43:00,
2013-07-13 21:52:00,57.0,-99.9,30.18,North,-999,-999.0,-999.0,-999,-99.99,,,-99.99,,2013-07-14 01:52:00,
2013-07-13 22:02:00,57.0,-99.9,30.18,North,-999,-999.0,-999.0,-999,-99.99,,,-99.99,,2013-07-14 02:02:00,
2013-07-13 22:11:00,57.0,-99.9,30.18,North,-999,-999.0,-999.0,-999,-99.99,,,-99.99,,2013-07-14 02:11:00,
2013-07-13 22:32:00,57.0,-99.9,30.18,North,-999,-999.0,-999.0,-999,-99.99,,,-99.99,,2013-07-14 02:32:00,
2013-07-13 22:43:00,57.0,-99.9,30.18,North,-999,-999.0,-999.0,-999,-99.99,,,-99.99,,2013-07-14 02:43:00,
2013-07-13 22:53:00,57.0,-99.9,30.18,North,-999,-999.0,-999.0,-999,-99.99,,,-99.99,,2013-07-14 02:53:00,
2013-07-13 23:02:00,57.0,-99.9,30.18,North,-999,-999.0,-999.0,-999,-99.99,,,-99.99,,2013-07-14 03:02:00,
2013-07-13 23:11:00,57.0,-99.9,30.18,North,-999,-999.0,-999.0,-999,-99.99,,,-99.99,,2013-07-14 03:11:00,
2013-07-13 23:32:00,57.0,-99.9,30.17,North,-999,-999.0,-999.0,-999,-99.99,,,-99.99,,2013-07-14 03:32:00,
2013-07-13 23:43:00,57.0,-99.9,30.17,North,-999,-999.0,-999.0,-999,-99.99,,,-99.99,,2013-07-14 03:43:00,
2013-07-13 23:53:00,57.0,-99.9,30.17,North,-999,-999.0,-999.0,-999,-99.99,,,-99.99,,2013-07-14 03:53:00,